FALCON 9 DEB

Last updated on May 17, 2021, 12:02 a.m. UTC

1 48416U 21038BR  21136.55912020  .00348192  69478-4  39533-3 0  9995
2 48416  53.0507 344.0810 0012644 207.2041 152.8331 16.08469420  1899

Satellite is not in orbit.